Weather in Paulo Afonso

Brazil     9°25′50″S   38°12′40″W
temp.,
°C
wind,
m/s
gust,
m/s
humid.,
%
clouds,
%
prec.,
mm/h
press.,
hPa
HPBL,
m
20 april, tue
tue2000:00+22wsw119193 0.6 101319
03:00+21w119574 2.5 101225
06:00+21wnw119461 0.1 101331
09:00+28nnw226415 0.3 1014803
12:00+33nw224392 0.2 10112177
15:00+31s334980 0.3 10091069
18:00+24s358575 2.9 101194
21:00+22sse279494 5.1 1013186
21 april, wed
wed2100:00+22se129865 1.0 101373
03:00+22sse129889 2.9 101168
06:00+22sse119876 0.0 101320
09:00+28nne236522 0.0 1014825
12:00+34nw234067 0.2 10102234
15:00+31nw2447100 0.3 1008262
18:00+25s3672100 0.1 1011162
21:00+22se269252 1.0 1013170
22 april, thu
thu2200:00+21s119684 3.7 101336
03:00+21sse139745 7.3 1012133
06:00+21se119699 0.3 101340
09:00+27ne236995 0.3 1014722
12:00+33e024399 0.5 10111937
15:00+30ese1256100 0.8 1009117
18:00+26s237177 0.6 101174
21:00+23s41089100 2.4 1014284
23 april, fri
fri2300:00+22s499398 0.4 1014350
03:00+22sse269697 1.6 1013244
06:00+21sse259739 0.0 1014187
09:00+27ese346619 0.0 1015957
12:00+32e334594 0.0 10122049
15:00+32e444484 0.0 10091715
18:00+26se4970100 0.0 1011383
21:00+24se4108261 0.0 1013570
24 april, sat
sat2400:00+22se389129 0.0 1013380
03:00+21sse279737 0.0 1012221
06:00+20se279831 0.0 1013286
09:00+28ese45585 0.0 10141189
12:00+32ese44385 0.0 10121876
15:00+33ese453540 0.0 10092425
18:00+24sse4108012 0.2 1011352
21:00+23sse39901 0.3 1013458